Weather History for Albany, GA

Change the Weather History Date:

Thursday, December 6, 2012

  Actual Average Record
Temperature  
Mean Temperature 63 °F 53 °F  
Max Temperature 75 °F 64 °F 83 °F (1977)
Min Temperature 50 °F 41 °F 23 °F (1979)
Degree Days  
Heating Degree Days 2 13  
Month to date heating degree days 8 72  
Since 1 July heating degree days 343 342  
Cooling Degree Days 0 0  
Month to date cooling degree days 1 0  
Year to date cooling degree days 2804 2533  
Growing Degree Days 10 (Base 50)    
Moisture  
Dew Point 54 °F    
Average Humidity 77    
Maximum Humidity 96    
Minimum Humidity 57    
Precipitation  
Precipitation 0.00 in 0.15 in 0.01 in (2002)
Month to date precipitation 0.00 0.89  
Year to date precipitation 27.43 45.71  
Sea Level Pressure  
Sea Level Pressure 30.09 in    
Wind  
Wind Speed 6 mph (ENE)    
Max Wind Speed 16 mph    
Max Gust Speed 20 mph    
Visibility 9 miles    
Events      
T = Trace of Precipitation, MM = Missing Value Source: NWS Daily Summary

Daily Weather History Graph

Daily Weather History Graph

Search for Another Location

Airport:

Trip Planner

Search our weather history database for the weather conditions in past years. The results will help you decide how hot, cold, wet, or windy it might be!

Date:

Astronomy

Dec. 06, 2012 Rise Set
Actual Time 7:22 AM EST 5:33 PM EST
Civil Twilight 6:56 AM EST 5:59 PM EST
Nautical Twilight 6:25 AM EST 6:30 PM EST
Astronomical Twilight 5:56 AM EST 6:59 PM EST
Moon 12:03 AM EST (12/6) 12:36 PM EST (12/6)
Length of Visible Light 11h 03m
Length of Day
10h 10m
Waning Gibbous, 49% of the Moon is Illuminated
Dec 6
Waning Gibbous
Dec 13
New
Dec 20
First Quarter
Dec 28
Full
Jan 4
Last Quarter

Hourly Weather History & Observations

Time (EST) Temp. Dew Point Humidity Pressure Visibility Wind Dir Wind Speed Gust Speed Precip Events Conditions
12:53 AM 54.0 °F 50.0 °F 86% 30.11 in 10.0 mi Calm Calm - N/A   Clear
1:53 AM 52.0 °F 50.0 °F 93% 30.11 in 10.0 mi Calm Calm - N/A   Clear
2:53 AM 52.0 °F 48.9 °F 89% 30.10 in 9.0 mi Calm Calm - N/A   Clear
3:53 AM 52.0 °F 48.9 °F 89% 30.09 in 8.0 mi Calm Calm - N/A   Clear
4:53 AM 50.0 °F 48.9 °F 96% 30.09 in 7.0 mi Calm Calm - N/A   Clear
5:53 AM 51.1 °F 48.0 °F 89% 30.09 in 8.0 mi Calm Calm - N/A   Clear
6:53 AM 53.1 °F 50.0 °F 89% 30.11 in 8.0 mi Calm Calm - N/A   Overcast
7:53 AM 54.0 °F 52.0 °F 93% 30.12 in 7.0 mi Calm Calm - N/A   Overcast
8:53 AM 57.0 °F 52.0 °F 83% 30.14 in 7.0 mi ENE 8.1 mph - N/A   Mostly Cloudy
9:53 AM 60.1 °F 54.0 °F 80% 30.15 in 9.0 mi ENE 6.9 mph - N/A   Overcast
10:45 AM 62.6 °F 55.4 °F 77% 30.15 in 10.0 mi ENE 6.9 mph - N/A   Overcast
10:53 AM 62.1 °F 55.0 °F 78% 30.14 in 9.0 mi East 5.8 mph - N/A   Overcast
11:53 AM 68.0 °F 55.9 °F 65% 30.11 in 10.0 mi ENE 9.2 mph - N/A   Overcast
12:00 PM 69.8 °F 55.4 °F 60% 30.10 in 10.0 mi ENE 8.1 mph - N/A   Mostly Cloudy
12:53 PM 71.1 °F 57.0 °F 61% 30.08 in 10.0 mi ENE 8.1 mph - N/A   Mostly Cloudy
1:53 PM 71.1 °F 55.9 °F 59% 30.06 in 10.0 mi ENE 9.2 mph - N/A   Overcast
2:53 PM 71.1 °F 55.9 °F 59% 30.04 in 10.0 mi East 10.4 mph - N/A   Overcast
3:53 PM 70.0 °F 54.0 °F 57% 30.04 in 10.0 mi NE 11.5 mph - N/A   Mostly Cloudy
4:53 PM 69.1 °F 55.0 °F 61% 30.06 in 10.0 mi East 11.5 mph - N/A   Mostly Cloudy
5:53 PM 66.9 °F 55.0 °F 66% 30.06 in 10.0 mi ENE 11.5 mph - N/A   Mostly Cloudy
6:53 PM 64.0 °F 55.9 °F 75% 30.07 in 10.0 mi NE 10.4 mph - N/A   Scattered Clouds
7:27 PM 64.4 °F 55.4 °F 73% 30.09 in 10.0 mi ENE 12.7 mph - N/A   Mostly Cloudy
7:53 PM 64.0 °F 57.0 °F 78% 30.09 in 10.0 mi ENE 9.2 mph - N/A   Overcast
8:36 PM 62.6 °F 57.2 °F 82% 30.09 in 10.0 mi East 11.5 mph - N/A   Mostly Cloudy
8:53 PM 62.1 °F 57.0 °F 84% 30.09 in 10.0 mi ENE 9.2 mph - N/A   Mostly Cloudy
9:11 PM 62.6 °F 57.2 °F 82% 30.09 in 9.0 mi ENE 6.9 mph - N/A   Scattered Clouds
9:23 PM 62.6 °F 57.2 °F 82% 30.09 in 9.0 mi East 5.8 mph - N/A   Mostly Cloudy
9:53 PM 62.1 °F 57.9 °F 86% 30.09 in 9.0 mi ENE 5.8 mph - N/A   Overcast
10:53 PM 62.1 °F 57.0 °F 84% 30.09 in 8.0 mi ENE 10.4 mph - N/A   Overcast
11:33 PM 62.6 °F 57.2 °F 82% 30.09 in 8.0 mi ENE 9.2 mph - N/A   Overcast
11:53 PM 61.0 °F 57.0 °F 87% 30.09 in 8.0 mi ENE 9.2 mph - N/A   Overcast